Wind_Speed
4 4 5 5 5 6 7 7 7 6 6 6 7 7 8 8 8 8 7 7 8 8 9 9 9 9 9 10 10 10 11 12 13 13 13 12 12 12 11 11 10 10 9
5 5 5 6 6 7 8 8 8 8 8 7 7 8 8 8 9 8 9 8 8 8 8 9 9 9 9 11 11 11 12 12 12 14 13 13 13 12 12 12 11 10 10
5 5 5 6 6 7 8 8 8 8 8 8 8 8 8 8 9 9 9 9 9 9 9 9 9 9 9 10 11 11 12 12 12 13 14 13 14 13 13 13 13 11 11
5 6 6 6 6 6 6 6 6 7 8 8 9 9 9 9 9 9 9 9 10 10 10 10 10 10 10 11 11 11 11 11 12 13 13 13 13 13 14 14 14 13 13
7 6 7 7 7 7 7 6 6 7 8 8 9 9 9 10 9 9 10 10 10 11 11 11 11 11 12 12 12 12 12 12 12 13 13 13 13 14 14 15 15 15 15
8 7 7 8 8 8 7 7 7 7 7 8 8 8 9 9 9 8 8 9 10 11 12 12 12 12 12 12 12 13 13 14 14 14 14 14 14 15 15 15 15 16 16
9 9 8 8 8 8 8 8 8 8 8 8 8 8 9 9 10 9 9 9 10 10 11 12 12 12 13 12 13 13 13 13 14 15 15 15 15 15 16 16 16 16 16
10 10 9 9 9 9 8 9 9 9 9 9 9 9 9 9 10 10 10 10 10 10 12 12 12 12 13 13 13 13 13 14 14 15 16 16 16 16 16 16 16 16 17
9 9 9 10 9 9 9 10 10 10 10 10 10 10 10 10 10 10 10 10 11 12 12 13 13 14 14 14 14 14 15 15 15 16 17 17 16 17 17 17 16 17 17
11 10 10 10 10 10 10 10 10 10 10 10 11 10 10 10 10 11 11 11 12 13 13 14 14 15 15 16 16 16 16 17 17 17 17 17 17 18 18 18 18 18 18
12 12 11 11 10 11 10 10 10 10 10 10 10 10 11 11 11 11 11 12 12 13 14 15 15 16 16 17 17 17 18 18 19 18 18 18 18 18 19 19 19 20 19
13 13 13 13 12 11 11 11 10 10 11 11 11 11 12 12 12 12 12 13 14 14 15 15 15 16 17 18 18 18 19 19 20 20 19 19 19 19 20 20 20 20 20
14 14 14 14 13 13 12 12 12 12 12 13 12 12 13 13 13 13 14 14 15 16 16 16 16 17 18 18 18 19 19 20 20 20 21 21 21 21 21 22 21 21 21
14 14 14 14 14 14 14 13 13 14 14 14 14 13 14 14 14 14 15 16 16 17 18 18 18 19 20 19 19 19 20 20 21 21 21 22 22 22 22 23 23 23 23
15 15 15 15 15 15 14 14 14 15 15 15 15 16 16 16 15 16 16 17 18 18 19 20 20 21 21 21 21 21 20 21 22 21 23 23 23 23 23 24 25 25 25
16 16 16 16 16 16 16 15 15 15 16 16 16 17 17 18 18 18 19 19 19 20 20 20 20 21 22 22 22 22 22 22 23 23 22 23 24 25 25 25 26 26 26
17 17 17 17 17 17 17 17 16 17 17 17 18 18 18 19 20 21 21 21 21 21 21 21 21 22 22 23 23 23 24 24 24 24 24 24 25 26 26 26 26 25 26
18 18 19 18 18 18 19 19 18 18 19 19 20 20 20 21 21 21 21 22 23 23 22 22 23 23 23 23 24 25 25 25 25 24 25 26 26 26 27 26 26 26 26
20 19 19 19 19 19 20 20 20 20 20 21 21 21 21 21 22 22 22 22 23 24 24 24 24 24 24 24 24 25 26 26 25 26 26 27 26 26 25 26 27 27 27
21 20 20 20 20 20 20 21 21 21 21 22 22 22 21 22 22 22 22 23 24 24 24 24 24 25 25 25 26 26 26 27 26 27 27 27 26 26 26 26 26 27 28
21 21 21 21 21 21 21 20 21 21 21 21 21 21 21 22 22 22 22 23 24 24 25 25 25 25 25 26 27 27 27 26 27 27 27 26 26 26 27 27 28 28 28
22 22 22 22 22 22 21 21 21 21 21 21 21 21 21 22 22 22 23 23 23 24 25 25 25 24 25 26 27 26 26 26 27 27 27 28 28 27 28 28 28 29 29
23 23 23 23 23 23 22 22 22 22 22 21 21 21 21 22 23 23 24 24 24 24 24 24 24 24 25 26 27 27 27 27 27 27 28 28 28 29 29 29 29 30 30
24 23 23 23 24 23 24 23 23 23 22 22 23 23 23 22 23 24 25 25 25 25 25 24 24 24 26 27 27 27 27 27 28 29 29 29 29 29 29 30 30 30 30
25 25 24 24 25 24 24 24 23 23 23 24 25 24 24 25 25 25 26 26 26 26 26 26 25 26 26 27 27 27 27 27 28 28 29 29 30 30 30 30 30 30 30
26 26 26 26 25 24 25 25 24 24 24 25 25 26 26 26 26 27 27 27 26 26 26 26 26 27 26 26 27 27 27 26 27 28 28 29 29 30 30 30 31 31 30
Wind_Direction
316 310 305 290 277 277 274 276 279 274 272 271 268 267 266 264 261 260 253 246 244 238 233 232 229 232 235 238 241 242 245 244 243 245 250 250 247 249 253 255 259 263 265
304 297 293 283 278 281 277 275 274 273 272 274 272 274 271 268 261 259 255 249 244 239 234 229 228 234 240 243 243 244 243 241 240 240 244 251 251 252 252 254 256 260 262
299 294 291 281 275 277 280 277 272 271 272 274 275 279 276 272 265 259 252 251 248 241 241 242 241 241 246 249 248 247 242 238 237 238 242 249 250 252 253 254 257 261 263
299 296 292 288 288 289 285 278 275 274 275 275 273 276 277 272 269 263 255 252 250 246 245 249 250 249 250 252 252 251 246 240 238 241 245 251 252 255 255 255 259 262 265
294 293 291 292 297 298 292 287 284 281 281 278 275 275 274 273 267 266 257 254 251 247 245 248 253 252 253 253 253 253 250 247 244 246 248 253 255 257 257 258 259 263 265
291 290 290 290 292 295 293 289 283 279 280 282 281 277 277 274 269 267 259 258 255 249 247 249 254 256 255 252 256 256 254 251 247 247 250 254 257 257 255 256 260 263 265
292 285 284 285 287 291 290 286 283 279 278 278 280 277 274 276 273 266 261 258 255 251 248 252 255 255 256 256 257 256 255 254 252 250 251 254 257 259 258 258 260 261 264
294 283 280 279 282 283 281 281 280 274 271 272 275 279 280 276 274 267 261 257 253 254 251 252 253 252 253 255 257 258 257 257 257 256 257 258 259 257 259 263 264 266 268
294 290 282 285 279 282 282 281 279 275 270 271 273 273 276 277 272 270 270 265 260 259 258 257 255 254 254 254 257 258 258 258 258 257 258 260 260 260 263 265 266 269 271
293 289 286 288 287 286 285 281 283 273 271 274 271 272 274 273 268 269 269 266 261 261 261 263 262 261 260 258 259 259 261 262 259 257 258 260 261 262 264 267 267 267 269
290 287 286 286 286 286 287 284 282 278 277 276 273 273 273 272 270 269 269 267 264 263 262 262 264 264 264 262 262 262 262 263 262 260 260 262 263 263 264 265 267 268 267
290 286 284 282 281 284 285 284 280 280 277 275 274 273 272 273 272 270 269 268 266 266 264 263 265 265 265 265 265 265 264 266 262 262 264 266 266 266 267 267 269 269 269
289 286 282 279 278 280 282 282 280 280 279 277 275 273 272 271 272 273 273 271 270 271 270 267 265 266 266 265 266 266 266 268 264 264 265 266 267 269 270 270 270 270 271
287 286 284 281 277 278 278 277 276 278 276 275 273 273 274 276 274 274 275 272 271 271 273 271 268 269 268 266 265 265 267 266 265 266 266 266 268 270 271 271 271 270 271
284 283 284 282 279 277 276 276 277 276 276 275 274 274 276 277 276 275 275 274 273 273 273 273 271 270 268 266 265 265 267 268 268 268 268 269 269 271 271 272 271 272 272
281 280 280 279 278 277 274 274 276 277 276 276 277 276 277 278 277 276 275 276 275 275 274 273 273 273 270 268 267 267 269 269 268 268 271 271 271 271 271 273 273 273 272
277 278 280 279 277 275 276 276 277 279 278 278 279 280 279 279 279 276 276 276 277 277 275 275 273 273 271 268 268 268 269 269 269 269 270 273 273 272 272 273 273 274 274
277 278 279 278 277 276 276 277 277 278 279 280 280 280 280 280 279 278 277 277 276 276 276 276 275 274 273 271 269 268 269 269 270 270 272 272 273 274 272 272 273 274 275
275 276 277 277 276 275 276 276 275 277 278 279 279 280 282 284 283 281 279 278 276 277 278 278 277 275 275 274 272 270 269 269 269 271 273 274 274 275 275 275 275 275 276
273 273 276 277 276 274 275 276 276 277 278 279 279 279 279 282 284 282 282 280 278 278 279 280 278 276 276 274 273 272 269 270 269 271 272 273 274 275 276 276 276 277 278
274 275 277 277 277 275 278 275 276 277 277 277 278 278 277 279 282 283 283 282 281 280 280 280 279 277 276 274 272 270 270 270 271 271 272 273 274 275 277 277 277 279 279
273 274 276 278 276 276 279 276 276 276 276 276 276 276 278 279 280 281 282 282 282 282 281 280 279 279 277 275 273 272 272 271 272 273 273 273 273 275 277 278 278 278 278
271 272 273 276 276 275 277 276 276 274 275 276 277 277 279 281 281 281 281 282 283 283 283 281 280 280 278 277 275 273 273 273 273 273 273 273 274 275 276 278 280 280 279
270 271 271 273 276 277 277 277 275 273 273 274 275 277 278 279 282 283 283 284 283 283 283 282 281 281 281 279 277 275 274 274 274 274 273 274 274 275 277 278 280 280 280
271 272 272 272 273 274 275 275 275 274 274 275 276 277 276 278 280 282 282 283 283 283 283 282 282 282 282 279 278 275 275 275 275 275 275 274 274 275 276 278 279 281 281
270 272 272 272 271 273 274 273 274 274 275 276 277 277 276 278 279 280 281 282 282 282 282 283 282 282 282 280 278 277 276 275 274 274 274 274 274 275 275 277 279 280 280
Height
5870 5870 5870 5869 5869 5869 5869 5869 5869 5869 5869 5869 5870 5870 5870 5870 5871 5871 5871 5871 5871 5871 5871 5872 5873 5874 5875 5876 5876 5875 5875 5875 5877 5879 5882 5883 5884 5885 5886 5887 5887 5888 5888
5869 5869 5868 5868 5868 5868 5867 5867 5868 5868 5868 5868 5868 5868 5868 5869 5869 5869 5869 5869 5870 5870 5870 5871 5872 5873 5873 5873 5873 5872 5872 5873 5874 5876 5879 5881 5882 5883 5884 5885 5885 5885 5886
5868 5868 5867 5867 5866 5866 5866 5866 5866 5866 5866 5866 5867 5866 5866 5866 5867 5867 5867 5867 5868 5869 5870 5870 5871 5871 5872 5872 5871 5870 5870 5870 5872 5874 5877 5879 5880 5880 5881 5882 5882 5883 5883
5867 5866 5866 5865 5865 5864 5864 5864 5864 5864 5864 5864 5865 5865 5865 5865 5865 5865 5866 5866 5866 5867 5867 5868 5869 5869 5870 5870 5870 5870 5869 5870 5871 5873 5875 5876 5877 5878 5878 5879 5880 5880 5880
5865 5865 5865 5864 5864 5863 5862 5862 5862 5862 5862 5862 5862 5862 5863 5863 5863 5863 5864 5864 5864 5865 5865 5866 5867 5867 5868 5868 5868 5869 5868 5869 5870 5871 5872 5873 5874 5875 5875 5876 5877 5877 5877
5864 5863 5863 5863 5862 5862 5861 5861 5860 5860 5860 5860 5860 5860 5860 5860 5861 5861 5862 5862 5862 5862 5863 5864 5865 5865 5865 5866 5866 5867 5867 5867 5868 5869 5870 5870 5871 5872 5872 5873 5873 5874 5874
5861 5861 5861 5860 5860 5860 5859 5859 5858 5858 5858 5858 5858 5858 5858 5858 5858 5859 5859 5859 5860 5860 5861 5861 5862 5862 5863 5863 5863 5864 5864 5865 5865 5866 5867 5867 5868 5868 5869 5869 5870 5870 5870
5859 5858 5858 5858 5858 5857 5857 5856 5856 5856 5856 5856 5856 5855 5856 5856 5856 5856 5857 5857 5857 5858 5858 5859 5859 5859 5860 5860 5861 5861 5861 5862 5862 5863 5864 5864 5864 5865 5866 5866 5866 5866 5866
5856 5856 5856 5855 5855 5854 5854 5854 5854 5854 5854 5853 5853 5853 5853 5854 5853 5854 5854 5854 5854 5855 5855 5855 5856 5856 5857 5857 5857 5858 5858 5859 5859 5860 5860 5860 5861 5861 5862 5862 5862 5862 5862
5854 5854 5853 5853 5852 5852 5851 5851 5851 5851 5851 5851 5850 5850 5851 5851 5851 5851 5851 5851 5851 5852 5852 5852 5853 5853 5853 5854 5854 5854 5855 5855 5856 5856 5856 5857 5857 5857 5858 5858 5858 5858 5858
5851 5851 5851 5850 5849 5849 5849 5848 5848 5848 5848 5848 5848 5848 5848 5848 5848 5848 5848 5848 5848 5849 5849 5849 5849 5849 5849 5850 5850 5850 5851 5851 5851 5852 5852 5853 5853 5853 5853 5853 5853 5853 5853
5848 5848 5848 5847 5847 5846 5846 5845 5845 5845 5845 5845 5845 5845 5845 5844 5844 5845 5845 5845 5845 5845 5845 5845 5845 5845 5846 5846 5846 5846 5846 5847 5847 5847 5848 5848 5848 5848 5849 5849 5848 5848 5848
5845 5845 5844 5844 5843 5843 5842 5842 5842 5842 5841 5841 5841 5841 5841 5841 5841 5841 5841 5841 5841 5842 5841 5841 5841 5841 5841 5841 5841 5842 5842 5842 5842 5842 5843 5843 5843 5843 5843 5843 5843 5843 5843
5841 5841 5840 5840 5839 5839 5839 5839 5838 5838 5838 5837 5837 5837 5837 5837 5837 5837 5837 5838 5838 5838 5837 5837 5837 5837 5836 5836 5837 5837 5837 5837 5837 5837 5837 5838 5838 5838 5838 5838 5838 5838 5837
5837 5836 5836 5836 5835 5835 5835 5834 5834 5834 5834 5833 5833 5833 5833 5833 5833 5833 5833 5833 5833 5833 5833 5832 5832 5832 5831 5831 5832 5832 5832 5832 5832 5832 5832 5832 5832 5832 5832 5832 5832 5831 5831
5832 5832 5832 5831 5831 5831 5830 5830 5830 5830 5829 5829 5829 5829 5828 5828 5828 5828 5828 5827 5828 5828 5827 5827 5826 5826 5826 5826 5826 5826 5826 5826 5826 5826 5826 5826 5826 5826 5825 5825 5825 5825 5824
5827 5827 5827 5826 5826 5826 5826 5825 5825 5825 5825 5825 5824 5824 5823 5823 5822 5822 5822 5821 5821 5821 5821 5821 5820 5820 5820 5820 5820 5820 5820 5820 5820 5820 5820 5820 5819 5819 5819 5818 5818 5818 5818
5822 5822 5822 5821 5821 5821 5821 5821 5820 5820 5820 5819 5819 5819 5818 5817 5817 5816 5815 5815 5815 5815 5815 5815 5814 5814 5814 5814 5814 5814 5814 5814 5814 5813 5813 5813 5813 5812 5812 5812 5811 5811 5811
5817 5817 5816 5816 5815 5815 5815 5815 5815 5814 5814 5814 5813 5813 5812 5811 5811 5810 5809 5809 5808 5808 5808 5808 5808 5807 5807 5807 5807 5807 5807 5807 5807 5807 5807 5806 5806 5805 5805 5804 5804 5804 5803
5811 5811 5810 5810 5809 5809 5809 5809 5809 5808 5808 5807 5807 5806 5806 5805 5805 5804 5803 5802 5802 5801 5801 5801 5801 5801 5800 5800 5800 5800 5800 5799 5800 5800 5799 5799 5799 5798 5798 5797 5797 5797 5796
5805 5804 5804 5804 5803 5803 5802 5802 5802 5802 5801 5801 5800 5800 5800 5799 5799 5798 5797 5796 5795 5795 5794 5793 5793 5793 5793 5792 5792 5792 5792 5792 5792 5792 5792 5792 5791 5791 5791 5790 5790 5789 5788
5798 5798 5798 5797 5797 5797 5796 5796 5796 5795 5795 5794 5794 5794 5793 5793 5792 5791 5790 5790 5789 5788 5787 5786 5786 5785 5785 5785 5785 5784 5784 5785 5785 5785 5784 5784 5784 5783 5783 5782 5782 5781 5780
5790 5791 5791 5791 5790 5790 5790 5790 5789 5789 5788 5788 5787 5787 5786 5786 5785 5785 5784 5783 5782 5781 5781 5780 5779 5778 5778 5778 5777 5777 5776 5777 5777 5777 5776 5776 5776 5775 5775 5774 5773 5772 5771
5782 5783 5784 5784 5784 5784 5783 5783 5782 5782 5782 5781 5781 5781 5781 5780 5779 5778 5777 5776 5775 5775 5774 5773 5772 5771 5771 5770 5769 5769 5768 5768 5768 5768 5768 5768 5768 5767 5766 5766 5765 5764 5763
5776 5776 5776 5776 5777 5777 5776 5776 5776 5776 5775 5775 5774 5774 5774 5773 5772 5771 5770 5769 5768 5767 5766 5765 5764 5764 5763 5762 5761 5761 5760 5760 5760 5760 5759 5759 5759 5758 5758 5757 5756 5755 5753
5769 5769 5769 5769 5769 5769 5769 5769 5769 5769 5768 5768 5768 5767 5766 5766 5765 5764 5763 5762 5761 5760 5759 5758 5757 5756 5755 5754 5753 5753 5752 5751 5751 5751 5751 5750 5750 5749 5749 5748 5747 5746 5744